timestamp,wind_dir_avg,wind_spd_avg,wind_spd_max_dir,wind_spd_gust,battery_voltage,lat,long
2021-12-21 00:04:01+00:00,330.0,7.69,341.0,9.45,12.57,47.59359,-54.27349
2021-12-21 00:14:01+00:00,330.0,8.06,329.0,9.7,12.49,47.59359,-54.27349
2021-12-21 00:24:01+00:00,326.0,8.24,321.0,9.51,12.49,47.59359,-54.27349
2021-12-21 00:34:01+00:00,329.0,8.69,336.0,10.05,12.49,47.59359,-54.27349
2021-12-21 00:44:01+00:00,326.0,8.02,329.0,9.37,12.49,47.59359,-54.27349
2021-12-21 00:54:01+00:00,325.0,8.25,314.0,10.13,12.49,47.59359,-54.27349
2021-12-21 01:04:01+00:00,327.0,7.28,316.0,9.58,12.49,47.59359,-54.27349
2021-12-21 01:14:01+00:00,327.0,7.5,321.0,9.09,12.49,47.59359,-54.27349
2021-12-21 01:24:01+00:00,321.0,8.51,309.0,10.49,12.49,47.59359,-54.27349
2021-12-21 01:34:01+00:00,327.0,8.51,324.0,10.25,12.49,47.59359,-54.27349
2021-12-21 01:44:01+00:00,327.0,9.16,320.0,11.52,12.49,47.59359,-54.27349
2021-12-21 01:54:01+00:00,319.0,7.03,312.0,9.83,12.49,47.59359,-54.27349
2021-12-21 02:04:01+00:00,324.0,7.43,321.0,9.39,12.49,47.59359,-54.27349
2021-12-21 02:14:01+00:00,322.0,8.95,315.0,11.27,12.49,47.59359,-54.27349
2021-12-21 02:24:01+00:00,313.0,8.91,303.0,13.51,12.49,47.59359,-54.27349
2021-12-21 02:34:01+00:00,318.0,7.01,322.0,10.52,12.49,47.59359,-54.27349
2021-12-21 02:44:01+00:00,331.0,9.0,327.0,10.91,12.49,47.59359,-54.27349
2021-12-21 02:54:01+00:00,323.0,7.19,333.0,8.08,12.49,47.59359,-54.27349
2021-12-21 03:04:01+00:00,318.0,5.51,323.0,7.46,12.49,47.59359,-54.27349
2021-12-21 03:14:01+00:00,314.0,5.69,291.0,7.59,12.41,47.59359,-54.27349
2021-12-21 03:24:01+00:00,279.0,4.81,279.0,6.38,12.41,47.59359,-54.27349
2021-12-21 03:34:01+00:00,283.0,5.02,273.0,6.49,12.41,47.59359,-54.27349
2021-12-21 03:44:01+00:00,304.0,5.0,307.0,6.69,12.41,47.59359,-54.27349
2021-12-21 03:54:01+00:00,320.0,6.66,328.0,8.21,12.41,47.59359,-54.27349
2021-12-21 04:04:01+00:00,318.0,6.72,313.0,8.9,12.41,47.59359,-54.27349
2021-12-21 04:14:00+00:00,311.0,8.03,308.0,9.54,12.41,47.59359,-54.27349
2021-12-21 04:24:00+00:00,313.0,7.77,309.0,9.57,12.41,47.59359,-54.27349
2021-12-21 04:34:00+00:00,304.0,7.38,309.0,9.66,12.41,47.59359,-54.27349
2021-12-21 04:44:00+00:00,300.0,5.73,321.0,7.89,12.41,47.59359,-54.27349
2021-12-21 04:54:00+00:00,310.0,6.99,310.0,8.86,12.41,47.59359,-54.27349
2021-12-21 05:04:00+00:00,319.0,7.51,322.0,9.58,12.41,47.59359,-54.27349
2021-12-21 05:14:01+00:00,318.0,5.95,306.0,8.32,12.41,47.59359,-54.27349
2021-12-21 05:24:01+00:00,309.0,7.24,312.0,9.33,12.41,47.59359,-54.27349
2021-12-21 05:34:01+00:00,304.0,3.84,284.0,5.99,12.41,47.59359,-54.27349
2021-12-21 05:44:01+00:00,292.0,7.17,293.0,8.64,12.41,47.59359,-54.27349
2021-12-21 05:54:01+00:00,304.0,5.93,293.0,8.56,12.41,47.59359,-54.27349
2021-12-21 06:04:01+00:00,300.0,7.78,280.0,12.93,12.41,47.59359,-54.27349
2021-12-21 06:14:01+00:00,291.0,10.31,285.0,14.3,12.41,47.59359,-54.27349
2021-12-21 06:24:01+00:00,285.0,11.57,289.0,14.3,12.41,47.59359,-54.27349
2021-12-21 06:34:01+00:00,277.0,5.82,273.0,8.96,12.41,47.59359,-54.27349
2021-12-21 06:44:01+00:00,294.0,11.98,293.0,15.06,12.41,47.59359,-54.27349
2021-12-21 06:54:01+00:00,295.0,14.57,300.0,16.49,12.41,47.59359,-54.27349
2021-12-21 07:04:01+00:00,292.0,8.43,290.0,13.52,12.41,47.59359,-54.27349
2021-12-21 07:14:00+00:00,274.0,5.03,268.0,7.79,12.33,47.59359,-54.27349
2021-12-21 07:24:00+00:00,271.0,6.94,278.0,9.01,12.33,47.59359,-54.27349
2021-12-21 07:34:00+00:00,297.0,4.65,293.0,7.38,12.33,47.59359,-54.27349
2021-12-21 07:44:00+00:00,319.0,5.13,292.0,7.39,12.33,47.59359,-54.27349
2021-12-21 07:54:00+00:00,304.0,5.17,315.0,6.5,12.33,47.59359,-54.27349
2021-12-21 08:04:00+00:00,293.0,4.49,325.0,8.5,12.33,47.59359,-54.27349
2021-12-21 08:14:01+00:00,294.0,3.32,284.0,7.42,12.33,47.59359,-54.27349
2021-12-21 08:24:01+00:00,270.0,4.47,272.0,7.8,12.33,47.59359,-54.27349
2021-12-21 08:34:01+00:00,266.0,5.11,267.0,7.52,12.33,47.59359,-54.27349
2021-12-21 08:44:01+00:00,272.0,5.96,279.0,8.7,12.33,47.59359,-54.27349
2021-12-21 08:54:01+00:00,260.0,3.99,266.0,7.93,12.33,47.59359,-54.27349
2021-12-21 09:04:01+00:00,271.0,7.85,269.0,12.88,12.33,47.59359,-54.27349
2021-12-21 09:14:00+00:00,273.0,6.71,271.0,9.31,12.33,47.59359,-54.27349
2021-12-21 09:24:00+00:00,269.0,5.31,270.0,8.08,12.33,47.59359,-54.27349
2021-12-21 09:34:00+00:00,262.0,3.58,264.0,7.96,12.33,47.59359,-54.27349
2021-12-21 09:44:00+00:00,268.0,3.75,258.0,7.88,12.33,47.59359,-54.27349
2021-12-21 09:54:00+00:00,260.0,2.19,273.0,4.92,12.33,47.59359,-54.27349
2021-12-21 10:04:00+00:00,276.0,2.36,289.0,5.2,12.33,47.59359,-54.27349
2021-12-21 10:14:00+00:00,268.0,2.85,271.0,4.82,12.33,47.59359,-54.27349
2021-12-21 10:24:00+00:00,250.0,2.6,267.0,7.42,12.33,47.59359,-54.27349
2021-12-21 10:34:00+00:00,251.0,3.02,264.0,7.59,12.33,47.59359,-54.27349
2021-12-21 10:44:00+00:00,258.0,3.11,268.0,4.91,12.33,47.59359,-54.27349
2021-12-21 10:54:00+00:00,250.0,2.36,267.0,4.73,12.33,47.59359,-54.27349
2021-12-21 11:04:00+00:00,279.0,4.05,278.0,6.82,12.33,47.59359,-54.27349
2021-12-21 12:14:01+00:00,267.0,4.66,269.0,6.61,12.33,47.59359,-54.27349
2021-12-21 12:24:01+00:00,252.0,4.32,265.0,6.22,12.33,47.59359,-54.27349
2021-12-21 12:34:01+00:00,241.0,4.6,251.0,6.38,12.33,47.59359,-54.27349
2021-12-21 12:44:01+00:00,245.0,4.4,240.0,5.82,12.33,47.59359,-54.27349
2021-12-21 12:54:01+00:00,258.0,4.27,256.0,5.86,12.33,47.59359,-54.27349
2021-12-21 13:04:01+00:00,236.0,4.53,239.0,5.29,12.33,47.59359,-54.27349
2021-12-21 13:14:01+00:00,232.0,4.65,235.0,5.38,12.89,47.59359,-54.27349
2021-12-21 13:24:01+00:00,236.0,3.34,253.0,5.21,12.89,47.59359,-54.27349
2021-12-21 13:34:01+00:00,241.0,4.85,251.0,6.17,12.89,47.59359,-54.27349
2021-12-21 13:44:01+00:00,241.0,5.19,242.0,6.71,12.89,47.59359,-54.27349
2021-12-21 13:54:01+00:00,246.0,5.87,246.0,6.59,12.89,47.59359,-54.27349
2021-12-21 14:04:01+00:00,229.0,4.32,240.0,6.81,12.89,47.59359,-54.27349
2021-12-21 14:14:01+00:00,202.0,4.74,239.0,6.15,13.29,47.59359,-54.27349
2021-12-21 14:24:01+00:00,176.0,3.56,175.0,4.14,13.29,47.59359,-54.27349
2021-12-21 14:34:01+00:00,183.0,4.41,181.0,5.08,13.29,47.59359,-54.27349
2021-12-21 14:44:01+00:00,181.0,5.05,184.0,6.43,13.29,47.59359,-54.27349
2021-12-21 14:54:01+00:00,189.0,4.96,186.0,6.28,13.29,47.59359,-54.27349
2021-12-21 15:04:01+00:00,192.0,5.88,191.0,7.58,13.29,47.59359,-54.27349
2021-12-21 15:14:01+00:00,189.0,5.87,187.0,7.03,12.89,47.59359,-54.27349
2021-12-21 15:24:01+00:00,192.0,6.49,187.0,7.79,12.89,47.59359,-54.27349
2021-12-21 15:34:01+00:00,188.0,6.67,189.0,7.69,12.89,47.59359,-54.27349
2021-12-21 15:44:01+00:00,192.0,7.04,194.0,8.96,12.89,47.59359,-54.27349
2021-12-21 15:54:01+00:00,186.0,6.33,191.0,7.11,12.89,47.59359,-54.27349
2021-12-21 16:04:01+00:00,175.0,7.51,182.0,8.51,12.89,47.59359,-54.27349
2021-12-21 16:14:00+00:00,175.0,6.83,174.0,7.6,12.81,47.59359,-54.27349
2021-12-21 16:24:00+00:00,172.0,4.47,153.0,5.6,12.81,47.59359,-54.27349
2021-12-21 16:34:00+00:00,247.0,9.65,252.0,13.44,12.81,47.59359,-54.27349
2021-12-21 16:44:00+00:00,256.0,9.78,260.0,11.03,12.81,47.59359,-54.27349
2021-12-21 16:54:00+00:00,248.0,9.38,248.0,11.76,12.81,47.59359,-54.27349
2021-12-21 17:04:00+00:00,232.0,9.62,235.0,10.93,12.81,47.59359,-54.27349
2021-12-21 17:14:01+00:00,231.0,13.13,243.0,20.41,12.65,47.59359,-54.27349
2021-12-21 17:24:01+00:00,254.0,7.59,251.0,10.13,12.65,47.59359,-54.27349
2021-12-21 17:34:01+00:00,242.0,8.6,249.0,12.21,12.65,47.59359,-54.27349
2021-12-21 17:44:01+00:00,239.0,9.71,234.0,10.82,12.65,47.59359,-54.27349
2021-12-21 17:54:01+00:00,233.0,10.09,238.0,13.21,12.65,47.59359,-54.27349
2021-12-21 18:04:01+00:00,226.0,11.47,243.0,15.22,12.65,47.59359,-54.27349
2021-12-21 18:14:01+00:00,227.0,10.31,231.0,11.63,12.73,47.59359,-54.27349
2021-12-21 18:24:01+00:00,224.0,10.83,224.0,13.24,12.73,47.59359,-54.27349
2021-12-21 18:34:01+00:00,235.0,10.56,237.0,12.2,12.73,47.59359,-54.27349
2021-12-21 18:44:01+00:00,229.0,11.11,235.0,12.63,12.73,47.59359,-54.27349
2021-12-21 18:54:01+00:00,230.0,10.39,223.0,12.05,12.73,47.59359,-54.27349
2021-12-21 19:04:01+00:00,222.0,11.37,229.0,12.6,12.73,47.59359,-54.27349
2021-12-21 19:14:01+00:00,228.0,9.7,224.0,11.56,12.73,47.59359,-54.27349
2021-12-21 19:24:01+00:00,223.0,8.61,225.0,11.31,12.73,47.59359,-54.27349
2021-12-21 19:34:01+00:00,218.0,11.12,216.0,13.87,12.73,47.59359,-54.27349
2021-12-21 19:44:01+00:00,218.0,13.72,218.0,15.22,12.73,47.59359,-54.27349
2021-12-21 19:54:01+00:00,220.0,13.64,225.0,15.98,12.73,47.59359,-54.27349
2021-12-21 20:04:01+00:00,214.0,14.28,210.0,16.66,12.73,47.59359,-54.27349
2021-12-21 20:14:01+00:00,213.0,13.43,216.0,15.7,12.57,47.59359,-54.27349
2021-12-21 20:24:01+00:00,214.0,14.9,212.0,17.1,12.57,47.59359,-54.27349
2021-12-21 20:34:01+00:00,208.0,13.66,207.0,15.89,12.57,47.59359,-54.27349
2021-12-21 20:44:01+00:00,215.0,14.99,208.0,17.86,12.57,47.59359,-54.27349
2021-12-21 20:54:01+00:00,207.0,16.87,215.0,18.54,12.57,47.59359,-54.27349
2021-12-21 21:04:01+00:00,212.0,15.23,221.0,18.43,12.57,47.59359,-54.27349
2021-12-21 21:14:01+00:00,212.0,15.08,227.0,19.25,12.49,47.59359,-54.27349
2021-12-21 21:24:01+00:00,213.0,14.15,207.0,16.19,12.49,47.59359,-54.27349
2021-12-21 21:34:01+00:00,211.0,15.24,209.0,16.66,12.49,47.59359,-54.27349
2021-12-21 21:44:01+00:00,211.0,13.78,210.0,16.44,12.49,47.59359,-54.27349
2021-12-21 21:54:01+00:00,206.0,15.69,215.0,19.06,12.49,47.59359,-54.27349
2021-12-21 22:04:01+00:00,212.0,13.76,208.0,15.92,12.49,47.59359,-54.27349
2021-12-21 22:14:01+00:00,222.0,12.15,220.0,13.65,12.49,47.59359,-54.27349
2021-12-21 22:24:01+00:00,218.0,10.8,214.0,12.83,12.49,47.59359,-54.27349
2021-12-21 22:34:01+00:00,222.0,8.94,219.0,9.98,12.49,47.59359,-54.27349
2021-12-21 22:44:01+00:00,228.0,6.95,225.0,8.58,12.49,47.59359,-54.27349
2021-12-21 22:54:01+00:00,257.0,8.62,261.0,10.84,12.49,47.59359,-54.27349
2021-12-21 23:04:01+00:00,263.0,11.11,267.0,16.01,12.49,47.59359,-54.27349
2021-12-21 23:14:01+00:00,270.0,14.02,270.0,17.93,12.41,47.59359,-54.27349
2021-12-21 23:24:01+00:00,266.0,9.43,268.0,12.49,12.41,47.59359,-54.27349
2021-12-21 23:34:01+00:00,274.0,10.16,275.0,11.56,12.41,47.59359,-54.27349
2021-12-21 23:44:01+00:00,271.0,8.95,277.0,10.39,12.41,47.59359,-54.27349
2021-12-21 23:54:01+00:00,280.0,7.99,281.0,9.39,12.41,47.59359,-54.27349
